Wind_Speed
33 36 34 32 32 33 35 37 42 49 53 54 51 53 42 43 40 38 34 32 29 30 31 33 32 32 31 29 33 36 37 37 38 38 40 45 45 46 38 50 52 43 38
29 30 32 31 32 35 37 37 40 44 51 55 52 47 51 45 43 39 36 34 32 32 34 36 35 34 34 32 30 32 35 38 39 37 38 42 44 49 49 48 43 49 44
23 21 25 29 30 34 35 34 36 40 46 53 53 54 49 45 45 40 37 37 33 35 37 37 36 36 37 38 38 38 40 39 41 42 39 43 47 45 46 45 48 50 44
24 27 28 30 32 31 32 32 33 36 40 44 53 50 51 48 40 40 39 35 35 37 38 39 40 40 41 43 42 38 42 42 43 45 44 45 44 44 45 45 45 44 47
28 31 31 30 30 28 28 27 30 34 34 36 47 51 46 44 42 41 39 38 38 41 42 44 47 47 47 45 45 44 45 44 45 43 42 45 47 43 45 44 44 47 42
23 25 30 35 33 24 22 23 26 29 28 29 42 50 45 42 40 39 43 43 41 42 43 44 46 45 44 41 39 36 33 33 38 36 36 39 36 42 45 43 48 45 48
18 17 18 19 29 21 18 14 20 26 26 25 34 45 46 38 40 40 42 42 43 39 39 36 27 28 26 28 28 29 21 28 26 28 30 42 43 40 39 46 46 44 50
27 26 20 13 11 15 12 15 13 21 24 23 29 40 38 33 38 37 39 42 39 38 36 27 28 30 25 25 27 31 29 26 26 26 29 34 36 39 48 46 47 51 59
20 20 27 23 11 9 7 17 10 14 16 19 26 33 29 29 31 31 34 36 34 27 21 25 29 28 32 28 22 20 21 22 23 29 24 28 32 35 38 45 49 53 48
18 20 23 25 15 16 9 10 12 11 12 16 24 32 33 34 34 35 37 33 33 28 27 23 24 23 15 21 19 22 17 18 24 24 26 23 28 31 30 32 40 39 38
17 17 21 27 32 20 13 11 4 9 10 17 18 25 33 32 30 28 27 25 18 17 12 13 15 14 19 19 18 16 24 18 17 24 26 32 32 29 34 34 39 42 47
14 17 18 18 18 20 22 22 17 15 10 11 12 11 12 21 22 17 16 20 16 16 14 14 16 15 19 18 18 22 26 31 31 32 32 36 37 36 37 38 39 40 42
12 14 16 18 16 16 15 12 12 11 13 13 8 7 16 12 8 11 10 12 16 19 19 18 21 23 26 29 31 34 36 38 39 40 40 41 43 43 43 45 47 50 51
10 13 13 14 14 13 12 12 11 10 9 8 6 4 1 3 6 9 13 16 19 21 22 24 26 28 30 33 36 37 39 42 43 44 46 47 49 52 52 53 55 57 58
10 10 11 13 13 13 13 12 11 10 9 8 8 8 8 9 11 14 17 20 21 23 25 27 29 30 32 33 35 36 38 41 43 45 48 51 54 56 59 61 62 64 66
8 9 10 11 11 12 10 9 9 9 9 9 9 10 11 13 15 17 18 19 21 23 24 26 29 31 33 36 39 42 43 45 47 47 48 50 50 50 51 53 54 57 59
9 8 8 8 8 9 9 9 9 9 9 10 11 12 13 15 16 17 18 20 21 23 26 27 30 32 34 36 39 42 45 47 47 48 48 49 47 48 47 43 40 37 36
11 11 11 11 12 12 12 12 12 12 12 13 14 15 16 17 18 19 20 21 22 24 26 28 29 31 34 35 37 38 38 38 38 37 35 36 32 29 30 31 33 34 35
12 11 11 11 11 11 12 13 14 15 16 17 18 19 20 21 22 23 24 24 25 27 28 30 31 33 35 35 36 35 35 36 35 33 30 31 28 28 33 37 38 38 37
14 14 13 12 12 13 14 15 16 17 18 19 21 22 23 24 25 26 27 28 28 29 30 31 32 33 35 36 36 38 38 37 36 31 28 29 31 32 34 37 39 41 40
16 16 15 15 15 16 17 17 18 19 20 22 22 23 24 26 27 29 30 30 30 30 30 32 35 36 38 38 38 37 39 41 42 38 33 30 32 34 33 33 37 39 41
19 19 18 18 17 17 17 17 18 19 21 22 23 24 25 26 27 29 30 32 33 34 33 34 36 38 39 40 37 35 36 38 42 41 37 35 36 37 36 36 36 38 41
22 21 21 20 20 19 19 19 20 21 22 23 24 24 24 26 28 30 31 33 34 35 36 38 37 37 39 37 36 34 33 35 38 38 36 35 37 37 36 36 36 36 37
24 24 24 23 23 22 22 22 22 23 23 24 25 26 26 27 28 30 31 32 33 35 38 42 42 39 37 36 33 31 30 30 33 33 31 33 35 35 32 32 31 31 33
27 28 28 26 25 24 24 24 24 24 25 26 28 30 31 31 30 30 29 30 35 41 44 43 43 42 40 36 36 35 33 32 32 31 29 32 35 33 28 26 27 28 26
28 28 28 28 27 26 25 25 25 25 27 28 30 31 33 34 34 34 33 33 36 40 42 44 45 41 40 40 37 34 33 33 35 32 32 33 33 29 26 26 26 22 23
Wind_Direction
288 278 273 273 273 273 271 266 257 245 237 234 233 235 244 235 234 236 246 243 251 258 258 271 274 273 271 274 267 266 271 273 277 275 272 275 270 268 274 266 265 249 245
288 275 273 278 282 283 278 267 258 245 238 232 230 231 229 233 234 235 242 244 258 256 267 271 270 268 268 273 273 268 271 272 272 274 274 270 267 267 266 271 249 249 255
302 286 268 270 284 285 276 269 258 241 237 232 229 228 235 227 231 236 240 250 254 260 266 267 269 268 270 273 276 274 268 272 271 265 271 269 271 278 271 266 269 248 252
297 296 290 287 287 281 275 268 250 236 234 230 226 226 227 236 234 236 244 246 253 259 262 266 267 269 272 274 277 274 269 264 270 267 262 266 269 265 275 271 269 270 255
299 290 288 294 289 278 273 267 247 230 229 229 224 225 228 231 233 238 245 250 252 255 261 267 272 273 275 275 273 273 273 265 269 263 263 267 268 255 272 271 265 270 262
318 306 292 290 289 267 270 257 246 232 223 232 222 223 227 232 236 239 244 248 252 257 265 270 273 270 269 269 271 272 264 262 261 262 264 268 263 263 264 271 264 268 268
5 352 316 291 278 260 256 258 238 220 214 226 221 223 228 234 235 238 242 250 257 264 268 271 284 283 278 276 265 269 262 268 259 264 265 270 262 277 272 274 261 268 266
3 4 9 357 301 259 263 236 237 229 223 216 212 215 222 229 236 245 250 251 260 262 265 267 264 285 288 275 256 256 273 253 263 270 262 263 276 276 268 274 265 266 269
3 352 358 11 336 306 246 192 205 219 228 222 219 215 224 233 240 247 245 247 261 257 266 276 264 276 274 271 266 263 252 252 260 262 257 260 265 265 263 267 263 268 265
353 6 10 44 72 77 93 170 189 207 217 226 226 225 232 235 238 245 248 253 246 260 266 268 265 267 264 254 269 264 267 245 251 256 259 266 272 274 277 267 272 272 268
15 24 35 33 51 81 105 105 160 210 210 224 229 238 242 245 247 243 243 244 234 270 276 252 270 280 256 282 283 266 271 272 274 274 267 271 286 279 272 271 270 267 264
25 21 41 45 51 55 66 65 70 89 141 194 192 217 217 226 230 213 252 229 242 261 281 283 256 274 260 275 261 254 250 268 271 272 268 268 278 273 272 269 270 266 265
16 32 31 44 47 55 59 61 61 56 57 89 128 169 206 228 212 227 253 259 269 268 271 274 273 273 269 272 271 268 270 274 272 271 269 267 267 267 267 267 268 266 265
19 14 28 34 42 46 49 51 50 50 53 63 77 89 138 272 284 280 275 275 278 282 283 281 278 277 275 272 271 272 272 273 274 274 273 273 273 272 270 267 263 263 264
353 8 14 22 28 31 31 29 27 25 19 13 6 352 334 315 301 295 292 291 289 287 284 281 279 277 278 280 281 281 281 280 279 277 276 275 274 272 271 271 271 269 268
330 348 3 11 15 17 19 15 6 355 346 340 333 324 315 307 301 296 294 294 294 295 296 297 296 296 297 296 295 293 291 289 288 286 286 286 285 282 278 274 274 274 274
302 314 328 339 351 359 359 350 340 330 322 317 313 310 307 307 306 306 306 304 303 302 300 298 296 295 293 291 289 289 288 287 287 287 287 285 284 281 281 281 282 285 287
294 305 317 324 331 336 340 339 333 324 317 313 310 310 308 306 305 307 309 308 307 304 302 301 299 297 296 297 296 292 289 286 284 281 279 279 275 271 269 274 280 282 285
282 290 298 304 310 316 318 321 324 323 317 313 310 310 310 310 311 314 315 313 312 311 310 309 309 308 306 303 301 300 299 299 299 298 297 289 282 278 281 286 290 291 294
278 281 285 292 301 309 312 313 316 319 316 313 312 313 315 316 317 317 316 316 315 315 313 310 307 306 309 311 309 306 304 303 300 297 290 282 285 289 290 290 293 295 297
280 282 287 295 303 308 311 312 314 314 316 316 315 315 316 318 318 317 316 316 315 313 312 314 314 314 314 313 311 311 309 306 303 302 301 296 291 290 287 289 293 293 290
274 278 283 290 297 301 303 305 307 308 310 313 315 317 319 318 316 315 315 315 315 315 316 316 316 314 313 311 308 306 304 302 299 299 300 303 299 298 294 289 291 292 290
275 277 281 285 288 290 294 297 301 302 306 310 312 313 314 314 314 316 316 315 315 316 317 317 315 310 308 307 306 305 302 298 294 293 295 299 301 301 297 295 296 292 291
273 274 275 277 281 286 290 293 295 297 302 306 309 311 311 313 314 313 313 314 315 316 317 316 313 309 308 306 304 303 300 295 293 292 295 299 305 308 304 300 298 294 292
275 276 274 273 277 281 284 287 292 297 301 306 309 312 313 315 315 314 314 314 315 317 316 313 311 310 312 312 314 316 316 311 307 304 304 308 312 312 304 298 298 297 296
282 281 275 273 275 278 283 286 289 294 299 304 308 311 312 313 313 313 312 314 317 319 316 314 313 313 315 316 316 317 319 315 312 311 312 314 315 312 305 303 299 295 294
Height
3059 3056 3054 3052 3051 3050 3050 3050 3050 3054 3058 3063 3069 3075 3079 3086 3091 3094 3098 3100 3103 3105 3105 3106 3107 3108 3107 3109 3109 3109 3109 3110 3111 3111 3110 3109 3108 3107 3110 3114 3111 3113 3113
3049 3046 3046 3044 3041 3040 3038 3038 3039 3042 3047 3052 3060 3066 3072 3078 3083 3087 3091 3094 3096 3098 3098 3099 3099 3100 3099 3100 3102 3102 3102 3101 3102 3101 3101 3098 3100 3100 3103 3102 3102 3107 3109
3042 3038 3036 3035 3032 3029 3027 3027 3028 3031 3036 3043 3051 3056 3062 3065 3073 3080 3085 3088 3090 3091 3091 3092 3092 3092 3092 3092 3093 3093 3093 3092 3092 3093 3093 3090 3087 3091 3091 3093 3096 3096 3099
3037 3033 3029 3026 3023 3021 3019 3017 3018 3021 3026 3033 3040 3047 3055 3061 3067 3072 3077 3081 3083 3083 3083 3083 3083 3084 3083 3083 3083 3083 3083 3083 3082 3082 3083 3084 3083 3082 3082 3083 3086 3088 3089
3032 3026 3023 3019 3014 3011 3010 3010 3010 3013 3018 3024 3031 3042 3049 3055 3060 3066 3071 3074 3075 3075 3076 3075 3074 3074 3074 3074 3073 3072 3072 3072 3072 3071 3072 3074 3074 3074 3074 3074 3077 3077 3078
3027 3021 3015 3011 3006 3003 3003 3002 3004 3009 3014 3020 3026 3035 3043 3049 3055 3060 3063 3065 3066 3068 3068 3068 3066 3064 3063 3063 3062 3061 3061 3062 3061 3061 3062 3062 3064 3064 3067 3066 3068 3069 3071
3025 3017 3011 3005 2999 2996 2997 2998 3000 3003 3009 3015 3022 3032 3039 3044 3048 3052 3054 3056 3060 3063 3062 3060 3058 3056 3053 3053 3053 3053 3053 3052 3053 3053 3053 3054 3053 3057 3057 3057 3056 3058 3061
3026 3019 3011 3002 2995 2991 2993 2996 2999 3002 3007 3011 3016 3024 3033 3037 3040 3047 3049 3052 3054 3054 3053 3052 3051 3048 3047 3047 3045 3045 3045 3046 3046 3047 3047 3049 3049 3050 3049 3049 3049 3049 3047
3028 3021 3013 3002 2995 2989 2988 2994 2999 3003 3006 3010 3015 3021 3028 3033 3037 3040 3043 3046 3047 3044 3045 3044 3044 3043 3042 3041 3040 3038 3037 3038 3039 3039 3040 3041 3040 3039 3041 3039 3041 3040 3036
3030 3024 3017 3006 2998 2995 2995 2998 3001 3004 3006 3010 3014 3019 3024 3027 3030 3033 3036 3038 3039 3039 3039 3038 3037 3036 3036 3035 3033 3033 3034 3032 3032 3033 3033 3033 3034 3033 3034 3033 3033 3032 3031
3032 3027 3022 3013 3006 3002 3002 3003 3005 3005 3008 3010 3014 3018 3021 3024 3027 3028 3031 3031 3033 3032 3033 3032 3032 3032 3031 3031 3030 3029 3031 3029 3029 3028 3026 3027 3026 3025 3025 3025 3025 3024 3025
3034 3029 3025 3020 3014 3012 3009 3010 3007 3008 3009 3011 3013 3017 3019 3020 3022 3023 3021 3026 3027 3028 3028 3028 3028 3027 3027 3027 3026 3026 3024 3024 3023 3022 3020 3020 3019 3017 3017 3016 3015 3015 3016
3035 3032 3028 3025 3020 3017 3016 3014 3013 3013 3014 3012 3015 3016 3018 3020 3021 3023 3024 3024 3024 3025 3024 3024 3022 3021 3021 3019 3019 3017 3015 3014 3013 3012 3012 3010 3008 3008 3007 3005 3005 3004 3003
3036 3032 3030 3027 3025 3022 3020 3019 3018 3017 3017 3018 3019 3019 3020 3020 3020 3021 3021 3021 3020 3019 3018 3017 3016 3014 3012 3011 3009 3007 3006 3004 3001 2999 2997 2996 2994 2993 2993 2993 2992 2990 2987
3035 3034 3031 3029 3027 3025 3023 3021 3020 3019 3019 3018 3017 3018 3018 3018 3018 3018 3017 3016 3014 3013 3012 3011 3009 3006 3004 3001 2998 2996 2994 2992 2990 2987 2985 2984 2982 2981 2978 2975 2974 2972 2970
3035 3033 3031 3029 3027 3025 3024 3023 3022 3021 3019 3018 3018 3017 3016 3016 3015 3014 3012 3010 3008 3006 3004 3002 3000 2997 2993 2990 2987 2984 2982 2979 2975 2973 2971 2967 2965 2963 2961 2958 2956 2954 2953
3034 3032 3030 3028 3026 3025 3023 3021 3020 3020 3019 3018 3017 3016 3015 3013 3012 3009 3007 3005 3002 2999 2997 2995 2993 2989 2986 2984 2979 2975 2971 2967 2963 2959 2956 2953 2952 2948 2945 2943 2941 2941 2939
3033 3031 3029 3028 3026 3024 3023 3022 3021 3019 3018 3016 3015 3014 3012 3010 3008 3006 3002 2999 2996 2993 2991 2988 2985 2982 2977 2974 2969 2966 2962 2958 2954 2950 2947 2942 2940 2938 2935 2932 2931 2930 2928
3030 3030 3028 3026 3024 3022 3020 3019 3017 3016 3014 3013 3011 3009 3007 3005 3002 2999 2996 2994 2991 2988 2985 2980 2977 2973 2970 2966 2961 2955 2951 2946 2942 2938 2934 2930 2930 2929 2923 2918 2915 2913 2912
3027 3026 3024 3023 3022 3020 3018 3017 3014 3012 3010 3008 3007 3004 3002 2999 2996 2994 2991 2988 2985 2981 2977 2974 2971 2967 2961 2955 2950 2944 2939 2935 2931 2930 2927 2923 2918 2914 2911 2905 2901 2897 2897
3022 3021 3020 3019 3018 3016 3014 3012 3011 3009 3007 3004 3002 2999 2997 2994 2991 2988 2985 2982 2978 2975 2971 2966 2961 2956 2951 2946 2940 2933 2926 2921 2916 2914 2913 2912 2908 2904 2901 2896 2891 2887 2885
3017 3016 3015 3014 3013 3011 3009 3007 3005 3003 3001 2999 2996 2993 2990 2987 2984 2980 2977 2973 2970 2966 2963 2960 2954 2948 2943 2936 2932 2927 2921 2915 2907 2904 2902 2899 2896 2892 2888 2885 2881 2876 2872
3010 3010 3009 3008 3006 3004 3003 3001 2999 2997 2995 2992 2989 2985 2982 2979 2975 2972 2968 2964 2961 2958 2954 2950 2947 2944 2936 2929 2924 2919 2914 2909 2902 2898 2894 2890 2885 2881 2876 2872 2868 2865 2862
3003 3002 3001 3000 2999 2998 2996 2995 2992 2990 2988 2985 2982 2979 2976 2972 2969 2965 2961 2957 2953 2949 2945 2941 2937 2933 2929 2923 2918 2913 2908 2902 2896 2890 2886 2881 2876 2871 2866 2861 2859 2857 2854
2994 2993 2993 2992 2992 2991 2990 2988 2986 2984 2981 2978 2975 2973 2970 2965 2962 2958 2954 2951 2946 2941 2936 2930 2925 2920 2917 2912 2904 2899 2895 2890 2885 2880 2876 2871 2866 2860 2857 2854 2852 2849 2847
2986 2985 2984 2984 2984 2983 2983 2981 2979 2976 2974 2972 2969 2966 2962 2958 2955 2951 2948 2943 2938 2932 2926 2920 2914 2911 2905 2898 2893 2890 2886 2880 2874 2870 2865 2862 2857 2853 2849 2847 2845 2842 2840